VE3KSR Weather Reports


Display with metric or nautical units.
time (UTC)temp
F
wind
direction
speed
MPH
gust
MPH
rain 1hr
in
rain 24hr
in
rain mn
in
humidity
%
barometer
mb
20140901110911 62 250 5.0 10.0 0.12 0.00 0.00 92 1011.8
20140901110413 62 235 2.0 7.0 0.12 0.00 0.00 92 1011.6
20140901105912 62 246 3.0 6.0 0.12 0.00 0.00 93 1011.5
20140901105413 62 221 6.0 9.0 0.12 0.00 0.00 92 1011.5
20140901104911 62 219 9.0 12.0 0.12 0.00 0.00 92 1011.6
20140901104411 62 215 7.0 11.0 0.12 0.00 0.00 92 1011.4
20140901103911 62 222 8.0 9.0 0.12 0.00 0.00 92 1011.3
20140901103411 62 215 7.0 10.0 0.12 0.00 0.00 92 1011.4
20140901102911 62 221 7.0 10.0 0.12 0.00 0.00 92 1011.5
20140901102414 63 221 9.0 11.0 0.12 0.00 0.00 92 1011.3
20140901102411 63 221 9.0 11.0 0.12 0.00 0.00 92 1011.3
20140901101914 63 215 8.0 10.0 0.12 0.00 0.00 93 1011.2
20140901101416 63 218 7.0 9.0 0.12 0.00 0.00 93 1011.3
20140901100911 63 219 4.0 8.0 0.12 0.00 0.00 93 1011.4
20140901100412 63 0 0.0 0.0 0.12 0.00 0.00 93 1011.3
20140901095911 63 257 2.0 5.0 0.12 0.00 0.00 93 1011.4
20140901095411 63 252 2.0 6.0 0.12 0.00 0.00 93 1011.4
20140901094911 64 222 5.0 7.0 0.12 0.00 0.00 94 1011.6
20140901094413 63 219 7.0 9.0 0.12 0.00 0.00 95 1011.3
20140901093914 63 221 6.0 9.0 0.12 0.00 0.00 95 1011.3
20140901093412 63 219 6.0 10.0 0.12 0.00 0.00 95 1011.4
20140901092911 63 217 6.0 10.0 0.12 0.00 0.00 94 1011.5
20140901092415 63 225 6.0 8.0 0.12 0.00 0.00 95 1011.5
20140901091913 63 222 3.0 6.0 0.12 0.00 0.00 95 1011.7
20140901091412 63 232 1.0 6.0 0.12 0.00 0.00 95 1011.6
20140901090912 62 0 0.0 0.0 0.12 0.00 0.00 95 1011.2
20140901090509 62 228 5.0 8.0 0.12 0.00 0.00 95 1011.4
20140901090411 62 228 5.0 8.0 0.12 0.00 0.00 95 1011.4
20140901085949 62 224 7.0 9.0 0.12 0.00 0.00 95 1011.4
20140901085911 62 224 7.0 9.0 0.12 0.00 0.00 95 1011.4
20140901085411 62 225 3.0 7.0 0.12 0.00 0.00 94 1011.4
20140901084913 62 222 3.0 8.0 0.12 0.00 0.00 94 1011.3
20140901084411 62 214 1.0 5.0 0.12 0.00 0.00 94 1011.3
20140901083913 63 253 6.0 9.0 0.12 0.00 0.00 94 1011.4
20140901083411 63 248 4.0 7.0 0.12 0.00 0.00 94 1011.4
20140901082912 63 239 7.0 8.0 0.12 0.00 0.00 94 1011.7
20140901082411 62 238 7.0 10.0 0.12 0.00 0.00 94 1011.5
20140901081912 62 255 8.0 10.0 0.12 0.00 0.00 94 1011.6
20140901081411 62 249 8.0 10.0 0.12 0.00 0.00 94 1011.6
20140901080912 62 246 8.0 11.0 0.12 0.00 0.00 94 1011.5
20140901080412 62 252 8.0 10.0 0.12 0.00 0.00 94 1011.5
20140901075915 62 253 8.0 9.0 0.12 0.00 0.00 94 1011.4
20140901075412 62 243 8.0 12.0 0.12 0.00 0.00 94 1011.5
20140901074911 61 248 7.0 9.0 0.12 0.00 0.00 94 1011.5
20140901074411 61 253 6.0 9.0 0.12 0.00 0.00 94 1011.6
20140901073911 61 236 1.0 5.0 0.12 0.00 0.00 94 1011.6
20140901073411 61 242 8.0 9.0 0.12 0.00 0.00 94 1011.5
20140901072911 60 256 8.0 10.0 0.12 0.00 0.00 94 1011.5
20140901072411 60 250 9.0 11.0 0.12 0.00 0.00 94 1011.6
20140901071912 60 252 9.0 11.0 0.12 0.00 0.00 94 1011.7
20140901071411 60 236 9.0 11.0 0.12 0.00 0.00 94 1011.7
20140901070912 60 250 10.0 11.0 0.12 0.00 0.00 94 1011.5
20140901070411 60 252 10.0 11.0 0.12 0.00 0.00 95 1011.4
20140901065911 60 252 10.0 11.0 0.12 0.00 0.00 95 1011.3
20140901065411 61 253 10.0 12.0 0.12 0.00 0.00 95 1011.3
20140901064912 61 248 10.0 13.0 0.12 0.00 0.00 95 1011.2
20140901064412 60 248 8.0 10.0 0.12 0.00 0.00 95 1011.2
20140901063912 60 246 9.0 11.0 0.12 0.00 0.00 95 1011.1
20140901063413 61 250 9.0 11.0 0.12 0.00 0.00 95 1011.0
20140901062913 60 248 9.0 11.0 0.12 0.00 0.00 95 1011.1
20140901062411 61 250 8.0 10.0 0.12 0.00 0.00 95 1011.1
20140901061915 61 259 8.0 9.0 0.12 0.00 0.00 95 1011.1
20140901061413 62 259 9.0 10.0 0.12 0.00 0.00 95 1011.1
20140901060912 62 259 9.0 10.0 0.12 0.00 0.00 95 1011.1
20140901060411 62 250 8.0 10.0 0.12 0.00 0.00 95 1011.1
20140901055911 62 246 7.0 9.0 0.12 0.00 0.00 95 1011.0
20140901055414 62 239 6.0 8.0 0.12 0.00 0.00 95 1011.1
20140901054911 62 0 0.0 0.0 0.12 0.00 0.00 95 1011.1
20140901054411 62 245 4.0 5.0 0.12 0.00 0.00 96 1011.2
20140901053912 63 246 5.0 7.0 0.12 0.00 0.00 95 1011.1
20140901053411 63 239 5.0 7.0 0.12 0.00 0.00 95 1011.1
20140901052911 63 242 5.0 7.0 0.12 0.00 0.00 96 1011.2
20140901052411 63 238 5.0 6.0 0.12 0.00 0.00 96 1011.0
20140901051915 63 239 5.0 7.0 0.12 0.00 0.00 96 1010.9
20140901051412 63 243 4.0 5.0 0.12 0.00 0.00 96 1010.8
20140901050916 63 219 5.0 7.0 0.12 0.00 0.00 96 1010.8
20140901050411 63 221 6.0 7.0 0.12 0.00 0.00 96 1010.8
20140901045911 63 229 5.0 6.0 0.12 0.00 0.00 96 1010.8
20140901045414 63 215 5.0 7.0 0.12 0.00 0.00 95 1010.9
20140901044912 63 240 6.0 9.0 0.12 0.00 0.00 95 1010.9
20140901044411 64 242 6.0 7.0 0.12 0.00 0.00 95 1010.8
20140901043911 64 248 6.0 8.0 0.12 0.00 0.00 95 1010.9
20140901043416 64 253 7.0 8.0 0.12 0.00 0.00 95 1010.9
20140901042912 64 217 6.0 8.0 0.12 0.00 0.00 95 1010.9
20140901042412 64 215 8.0 10.0 0.12 0.00 0.00 95 1010.9
20140901041913 64 217 8.0 10.0 0.12 0.00 0.00 94 1010.9
20140901041416 64 226 7.0 8.0 0.12 0.00 0.00 93 1010.9
20140901040924 64 214 8.0 10.0 0.12 0.00 0.00 93 1010.9
20140901040414 65 215 9.0 10.0 0.12 0.00 0.00 93 1010.9
20140901035917 65 221 9.0 10.0 0.12 0.00 0.00 92 1010.9
20140901035412 65 221 7.0 8.0 0.12 0.00 0.00 92 1010.9
20140901034912 65 233 6.0 7.0 0.12 0.00 0.00 91 1011.0
20140901034413 65 243 6.0 7.0 0.12 0.00 0.00 91 1010.9
20140901033911 65 246 6.0 7.0 0.12 0.00 0.00 91 1010.9
20140901033412 65 229 6.0 7.0 0.12 0.00 0.00 91 1010.9
20140901032913 65 246 5.0 6.0 0.12 0.00 0.00 91 1011.0
20140901032412 65 218 6.0 6.0 0.12 0.00 0.00 90 1011.0
20140901031913 65 215 6.0 6.0 0.12 0.00 0.00 91 1011.1
20140901031412 65 219 6.0 6.0 0.12 0.00 0.00 91 1011.0
20140901030913 65 214 7.0 7.0 0.12 0.00 0.00 91 1011.0
20140901030414 65 217 7.0 7.0 0.12 0.00 0.00 90 1011.1
20140901025912 65 0 0.0 0.0 0.12 0.00 0.00 89 1011.0
20140901025527 66 238 5.0 5.0 0.12 0.00 0.00 89 1011.1
20140901025415 66 238 5.0 5.0 0.12 0.00 0.00 89 1011.1
20140901024912 66 248 3.0 6.0 0.12 0.00 0.00 88 1011.1
20140901024412 66 0 0.0 0.0 0.12 0.00 0.00 89 1011.0
20140901023912 66 0 0.0 0.0 0.12 0.00 0.00 89 1011.1
20140901023412 66 0 0.0 0.0 0.12 0.00 0.00 88 1011.1
20140901022913 66 0 0.0 0.0 0.12 0.00 0.00 88 1011.1
20140901022412 66 0 0.0 0.0 0.12 0.00 0.00 88 1011.0
20140901021914 66 0 0.0 0.0 0.12 0.00 0.00 88 1011.0
20140901021455 66 0 0.0 0.0 0.12 0.00 0.00 88 1011.0
20140901021412 66 0 0.0 0.0 0.12 0.00 0.00 88 1011.0
20140901021130 66 0 0.0 0.0 0.12 0.00 0.00 88 1011.0
20140901020913 66 0 0.0 0.0 0.12 0.00 0.00 88 1011.0
20140901020709 66 0 0.0 0.0 0.12 0.00 0.00 88 1011.1
20140901020413 66 0 0.0 0.0 0.12 0.00 0.00 88 1011.1
20140901015912 66 0 0.0 0.0 0.12 0.00 0.00 88 1011.1
20140901015414 66 0 0.0 0.0 0.12 0.00 0.00 87 1011.0
20140901014914 66 0 0.0 0.0 0.12 0.00 0.00 87 1011.0
20140901014412 67 0 0.0 0.0 0.12 0.00 0.00 87 1011.0
20140901013912 67 0 0.0 0.0 0.12 0.00 0.00 87 1011.0
20140901013412 67 332 5.0 5.0 0.12 0.00 0.00 86 1011.0
20140901012915 67 333 6.0 7.0 0.12 0.00 0.00 86 1011.0
20140901012413 67 345 6.0 6.0 0.12 0.00 0.00 86 1011.0
20140901011912 67 345 6.0 7.0 0.12 0.00 0.00 86 1011.1
20140901011411 67 349 6.0 7.0 0.12 0.00 0.00 86 1011.0
20140901010913 67 354 6.0 7.0 0.12 0.00 0.00 86 1011.1
20140901010412 67 349 6.0 8.0 0.12 0.00 0.00 86 1010.9
20140901005912 67 342 6.0 7.0 0.12 0.00 0.00 86 1010.9
20140901005412 67 353 5.0 7.0 0.12 0.00 0.00 85 1011.0
20140901004913 67 338 5.0 6.0 0.12 0.00 0.00 86 1011.0
20140901004412 67 319 5.0 6.0 0.12 0.00 0.00 85 1011.0
20140901003912 67 326 5.0 6.0 0.12 0.00 0.00 85 1011.0
20140901003412 67 340 6.0 6.0 0.12 0.00 0.00 85 1011.0
20140901002913 67 335 5.0 6.0 0.12 0.00 0.00 85 1011.0
20140901002413 67 322 5.0 6.0 0.12 0.00 0.00 85 1011.0
20140901001912 68 328 5.0 7.0 0.12 0.00 0.00 84 1011.0
20140901001412 68 349 6.0 8.0 0.12 0.00 0.00 84 1010.8
20140901000912 68 328 6.0 7.0 0.12 0.00 0.00 83 1010.9
20140901000412 68 314 6.0 9.0 0.12 0.00 0.00 83 1010.9
20140831235912 68 332 6.0 8.0 0.12 0.00 0.00 83 1010.9
20140831235414 68 335 6.0 7.0 0.12 0.00 0.00 83 1010.9
20140831234912 68 346 6.0 9.0 0.12 0.00 0.00 82 1010.9
20140831234413 68 338 6.0 9.0 0.12 0.00 0.00 82 1010.8
20140831233912 68 325 6.0 10.0 0.12 0.00 0.00 81 1010.8
20140831233412 69 329 6.0 10.0 0.12 0.00 0.00 81 1010.7
20140831232952 69 332 7.0 11.0 0.12 0.00 0.00 80 1010.7
20140831232913 69 332 7.0 11.0 0.12 0.00 0.00 80 1010.7
20140831232412 69 329 7.0 10.0 0.12 0.00 0.00 79 1010.7
20140831231912 69 318 6.0 8.0 0.12 0.00 0.00 79 1010.7
20140831231412 69 323 6.0 10.0 0.12 0.00 0.00 79 1010.8
20140831230912 69 321 8.0 12.0 0.12 0.00 0.00 78 1010.7
20140831230412 69 346 8.0 13.0 0.12 0.00 0.00 78 1010.6
20140831225912 69 319 8.0 11.0 0.12 0.00 0.00 78 1010.7
20140831225412 68 329 9.0 12.0 0.12 0.00 0.00 78 1010.8
20140831224912 68 354 8.0 12.0 0.12 0.00 0.00 78 1010.7
20140831224413 68 325 7.0 9.0 0.12 0.00 0.00 77 1010.7
20140831223912 70 285 8.0 11.0 0.12 0.00 0.00 77 1010.8
20140831223412 71 300 10.0 14.0 0.12 0.00 0.00 76 1010.9
20140831222912 71 300 8.0 12.0 0.12 0.00 0.00 76 1010.8
20140831222413 72 302 8.0 11.0 0.12 0.00 0.00 76 1010.7
20140831221912 71 307 6.0 10.0 0.12 0.00 0.00 75 1010.7
20140831221412 71 321 9.0 14.0 0.12 0.00 0.00 75 1010.6
20140831221002 71 300 7.0 11.0 0.12 0.00 0.00 75 1010.5
20140831220912 71 300 7.0 11.0 0.12 0.00 0.00 75 1010.5
20140831220413 71 300 9.0 12.0 0.12 0.00 0.00 74 1010.6
20140831215912 71 304 11.0 15.0 0.12 0.00 0.00 74 1010.6
20140831215412 71 284 11.0 16.0 0.12 0.00 0.00 73 1010.6
20140831214912 71 297 13.0 19.0 0.12 0.00 0.00 74 1010.6
20140831214413 70 302 13.0 17.0 0.12 0.00 0.00 74 1010.5
20140831213913 70 311 9.0 13.0 0.12 0.00 0.00 75 1010.7
20140831213412 68 285 9.0 16.0 0.12 0.00 0.00 76 1010.5
20140831212912 70 298 12.0 16.0 0.12 0.00 0.00 75 1010.6
20140831212419 71 305 12.0 16.0 0.12 0.00 0.00 75 1010.7
20140831211912 72 345 10.0 14.0 0.12 0.00 0.00 74 1010.6
20140831211412 71 294 9.0 11.0 0.12 0.00 0.00 76 1010.7
20140831210912 71 335 8.0 13.0 0.12 0.00 0.00 75 1010.6
20140831210413 71 301 10.0 14.0 0.12 0.00 0.00 75 1010.5
20140831205912 71 321 9.0 14.0 0.12 0.00 0.00 75 1010.6
20140831205412 72 297 12.0 15.0 0.12 0.00 0.00 74 1010.6
20140831204913 71 297 15.0 18.0 0.12 0.00 0.00 74 1010.6
20140831204413 72 302 9.0 16.0 0.12 0.00 0.00 75 1010.8
20140831203913 72 301 15.0 20.0 0.12 0.00 0.00 74 1010.8
20140831203412 72 294 17.0 20.0 0.12 0.00 0.00 74 1010.7
20140831202912 72 298 13.0 18.0 0.12 0.00 0.00 74 1010.7
20140831202416 72 291 16.0 20.0 0.12 0.00 0.00 74 1010.8
20140831201916 72 298 16.0 21.0 0.12 0.00 0.00 73 1010.8
20140831201412 72 301 14.0 20.0 0.12 0.00 0.00 74 1010.9
20140831200916 72 293 14.0 19.0 0.12 0.00 0.00 72 1010.7
20140831195413 70 300 16.0 23.0 0.12 0.00 0.00 74 1010.8
20140831194913 70 301 12.0 16.0 0.12 0.00 0.00 76 1010.9
20140831194417 71 297 14.0 19.0 0.12 0.00 0.00 74 1010.9
20140831193912 68 294 14.0 19.0 0.12 0.00 0.00 74 1011.0
20140831193412 68 323 14.0 18.0 0.12 0.00 0.00 74 1010.9
20140831192914 70 323 11.0 14.0 0.12 0.00 0.00 74 1011.0
20140831192412 70 288 11.0 16.0 0.12 0.00 0.00 73 1011.0
20140831191912 70 276 11.0 16.0 0.12 0.00 0.00 75 1011.1
20140831191412 70 287 13.0 22.0 0.12 0.00 0.00 74 1011.3
20140831190912 70 293 17.0 21.0 0.12 0.00 0.00 73 1011.3
20140831190412 70 298 12.0 16.0 0.12 0.00 0.00 74 1011.4
20140831185912 70 308 15.0 19.0 0.12 0.00 0.00 75 1011.5
20140831185412 69 297 19.0 25.0 0.12 0.00 0.00 74 1011.4
20140831184915 69 273 19.0 24.0 0.12 0.00 0.00 76 1011.4
20140831184412 69 273 17.0 25.0 0.12 0.00 0.00 74 1011.4
20140831183913 69 293 16.0 24.0 0.12 0.00 0.00 75 1011.4
20140831183414 69 298 16.0 23.0 0.12 0.00 0.00 75 1011.4
20140831182916 69 298 15.0 21.0 0.12 0.00 0.00 76 1011.6
20140831182414 69 291 18.0 22.0 0.12 0.00 0.00 76 1011.7
20140831181919 69 284 16.0 24.0 0.12 0.00 0.00 76 1011.8
20140831181415 69 287 15.0 21.0 0.12 0.00 0.00 78 1011.6
20140831180913 68 285 18.0 22.0 0.12 0.00 0.00 77 1011.6
20140831180414 68 291 16.0 22.0 0.12 0.00 0.00 77 1011.7
20140831175913 68 280 15.0 21.0 0.12 0.00 0.00 78 1011.8
20140831175413 68 297 16.0 21.0 0.12 0.00 0.00 77 1011.7
20140831174916 68 283 14.0 20.0 0.12 0.00 0.00 78 1011.7
20140831174414 68 288 14.0 18.0 0.12 0.00 0.00 79 1011.7
20140831173913 68 295 13.0 20.0 0.12 0.00 0.00 82 1011.7
20140831173413 68 290 15.0 23.0 0.12 0.00 0.00 83 1011.8
20140831172915 67 294 14.0 18.0 0.12 0.00 0.00 83 1011.7
20140831172416 67 285 13.0 18.0 0.12 0.00 0.00 83 1011.8
20140831171913 68 294 14.0 19.0 0.12 0.00 0.00 82 1011.7
20140831171413 68 271 13.0 18.0 0.12 0.00 0.00 83 1011.9
20140831170914 67 288 15.0 21.0 0.12 0.00 0.00 83 1011.9
20140831170413 67 281 14.0 19.0 0.12 0.00 0.00 83 1011.8
20140831165913 67 291 12.0 16.0 0.12 0.00 0.00 83 1011.9
20140831165413 67 284 14.0 19.0 0.12 0.00 0.00 83 1011.8
20140831164914 67 293 13.0 19.0 0.12 0.00 0.00 84 1011.8
20140831164419 67 294 15.0 20.0 0.12 0.00 0.00 83 1011.8
20140831163913 67 300 15.0 22.0 0.12 0.00 0.00 83 1011.8
20140831163413 67 291 16.0 21.0 0.12 0.00 0.00 83 1011.9
20140831162913 67 288 15.0 22.0 0.12 0.00 0.00 82 1011.8
20140831162413 67 293 13.0 18.0 0.12 0.00 0.00 83 1011.8
20140831161913 67 285 11.0 15.0 0.12 0.00 0.00 85 1011.8
20140831161413 67 290 14.0 18.0 0.12 0.00 0.00 85 1011.7
20140831160913 67 285 14.0 19.0 0.12 0.00 0.00 85 1011.7
20140831160413 67 285 15.0 19.0 0.12 0.00 0.00 85 1011.7
20140831155916 67 297 15.0 19.0 0.12 0.00 0.00 84 1011.6
20140831155413 67 298 10.0 14.0 0.12 0.00 0.00 85 1011.7
20140831154913 67 290 12.0 16.0 0.12 0.00 0.00 85 1011.6
20140831154414 66 297 15.0 20.0 0.12 0.00 0.00 85 1011.6
20140831153913 66 284 15.0 20.0 0.12 0.00 0.00 86 1011.7
20140831153413 66 294 16.0 20.0 0.12 0.00 0.00 87 1011.7
20140831152913 66 288 15.0 19.0 0.12 0.00 0.00 88 1011.8
20140831152413 66 293 14.0 20.0 0.12 0.00 0.00 87 1011.8
20140831151913 66 291 15.0 19.0 0.12 0.00 0.00 87 1011.9
20140831151413 66 290 15.0 19.0 0.12 0.00 0.00 87 1011.7
20140831151231 66 301 13.0 18.0 0.12 0.00 0.00 88 1012.0
20140831150913 66 312 13.0 17.0 0.12 0.00 0.00 87 1011.7
20140831150415 66 304 16.0 21.0 0.12 0.00 0.00 87 1011.7
20140831145915 66 291 13.0 18.0 0.12 0.00 0.00 88 1011.8
20140831145416 66 301 13.0 18.0 0.12 0.00 0.00 88 1012.0
20140831144914 66 293 13.0 17.0 0.12 0.00 0.00 88 1011.8
20140831144414 66 285 11.0 17.0 0.12 0.00 0.00 89 1012.0
20140831143917 66 294 13.0 18.0 0.12 0.00 0.00 90 1011.9
20140831143413 66 298 14.0 18.0 0.12 0.00 0.00 90 1012.0
20140831142915 65 288 15.0 19.0 0.12 0.00 0.00 90 1012.0
20140831142414 65 294 14.0 19.0 0.12 0.00 0.00 90 1012.2
20140831141913 65 288 16.0 22.0 0.12 0.00 0.00 91 1012.0
20140831141413 65 293 12.0 17.0 0.12 0.00 0.00 91 1012.3
20140831140914 65 297 14.0 20.0 0.12 0.00 0.00 91 1012.2
20140831140414 65 295 12.0 17.0 0.12 0.00 0.00 92 1012.2
20140831135914 64 285 15.0 20.0 0.12 0.00 0.00 92 1012.2
20140831135413 64 290 13.0 18.0 0.12 0.00 0.00 92 1012.0
20140831134913 64 297 15.0 19.0 0.12 0.00 0.00 92 1011.9
20140831134413 64 295 15.0 19.0 0.12 0.00 0.00 92 1012.0
20140831133913 64 278 13.0 18.0 0.12 0.00 0.00 93 1012.0
20140831133413 64 293 16.0 21.0 0.12 0.00 0.00 93 1012.0
20140831132914 64 297 15.0 19.0 0.12 0.00 0.00 94 1011.9
20140831132416 64 288 17.0 20.0 0.12 0.00 0.00 94 1011.9
20140831131913 64 290 17.0 24.0 0.12 0.00 0.00 94 1012.0
20140831131413 64 294 15.0 25.0 0.12 0.00 0.00 95 1012.0
20140831130913 64 293 14.0 20.0 0.12 0.00 0.00 95 1012.0
20140831130413 64 297 15.0 20.0 0.12 0.00 0.00 95 1011.9
20140831125913 64 278 14.0 19.0 0.12 0.00 0.00 95 1012.0
20140831125413 64 285 14.0 17.0 0.12 0.00 0.00 95 1011.9
20140831124917 64 301 13.0 17.0 0.12 0.00 0.00 95 1011.9
20140831124413 64 294 14.0 19.0 0.12 0.00 0.00 95 1011.8
20140831123914 64 293 13.0 19.0 0.12 0.00 0.00 95 1011.8
20140831123416 64 297 17.0 22.0 0.12 0.00 0.00 95 1011.9
20140831122914 64 287 14.0 18.0 0.12 0.00 0.00 95 1011.8
20140831122413 64 298 15.0 20.0 0.12 0.00 0.00 96 1011.6
20140831121914 64 294 13.0 18.0 0.12 0.00 0.00 96 1011.6
20140831121413 64 291 12.0 18.0 0.12 0.00 0.00 96 1011.5
20140831120914 64 304 11.0 16.0 0.12 0.00 0.00 96 1011.4
20140831120414 64 305 14.0 17.0 0.12 0.00 0.00 96 1011.6
20140831115913 64 267 14.0 18.0 0.12 0.00 0.00 96 1011.5
20140831115416 64 277 14.0 20.0 0.12 0.00 0.00 96 1011.6
20140831114914 64 285 13.0 18.0 0.12 0.00 0.00 96 1011.5
20140831114413 64 281 12.0 16.0 0.12 0.00 0.00 96 1011.4
20140831113914 64 288 12.0 20.0 0.12 0.00 0.00 96 1011.3
20140831113413 65 285 14.0 19.0 0.12 0.00 0.00 96 1011.2
20140831112915 65 270 11.0 14.0 0.12 0.00 0.00 96 1011.2
20140831112413 65 277 12.0 17.0 0.12 0.00 0.00 96 1011.2
20140831111915 65 298 12.0 17.0 0.12 0.00 0.00 96 1011.2
20140831111414 65 293 12.0 16.0 0.12 0.00 0.00 96 1011.2